Alliance, NE

9:25 PM MST on December 08, 2016 (GMT -0700)
Alliance Municipal

Weather History for KAIA - January, 2013

Change the Weather History Date:

Sunday, January 27, 2013

  Actual Average Record
Temperature  
Mean Temperature 41 °F 25 °F  
Max Temperature 55 °F 38 °F 71 °F (2015)
Min Temperature 27 °F 11 °F -29 °F (2009)
Degree Days  
Heating Degree Days 24 40  
Month to date heating degree days 1087 1102  
Since 1 July heating degree days 3891 4184  
Cooling Degree Days 0 0  
Month to date cooling degree days 0 0  
Year to date cooling degree days 0 0  
Moisture  
Dew Point 35 °F    
Average Humidity 77    
Maximum Humidity 100    
Minimum Humidity 54    
Precipitation  
Precipitation T in 0.01 in 1.00 in (1944)
Month to date precipitation T 0.15  
Year to date precipitation T 0.15  
Sea Level Pressure  
Sea Level Pressure 29.70 in    
Wind  
Wind Speed 7 mph (SSW)    
Max Wind Speed 13 mph    
Max Gust Speed 15 mph    
Visibility 10 miles    
Events Rain    
T = Trace of Precipitation, MM = Missing Value Source: NWS Daily Summary

Daily Weather History Graph

Daily Weather History Graph

Search for Another Location

Airport or City:

Trip Planner

Search our weather history database for the weather conditions in past years. The results will help you decide how hot, cold, wet, or windy it might be!

Date:

Astronomy

Jan. 27, 2013 Rise Set
Actual Time 7:08 AM MST 4:59 PM MST
Civil Twilight 6:38 AM MST 5:29 PM MST
Nautical Twilight 6:04 AM MST 6:03 PM MST
Astronomical Twilight 5:31 AM MST 6:36 PM MST
Moon 5:58 PM MST (1/27) 7:01 AM MST (1/27)
Length of Visible Light 10h 51m
Length of Day
9h 51m
Full, 100% of the Moon is Illuminated
Jan 27
Full
Feb 3
Last Quarter
Feb 10
New
Feb 17
First Quarter
Feb 25
Full

Hourly Weather History & Observations

Time (MST) Temp. Windchill Dew Point Humidity Pressure Visibility Wind Dir Wind Speed Gust Speed Precip Events Conditions
12:53 AM 39.0 °F 34.0 °F 28.0 °F 65% 29.69 in 10.0 mi South 6.9 mph - N/A   Overcast
1:53 AM 39.9 °F 33.4 °F 28.0 °F 63% 29.69 in 10.0 mi SSE 10.4 mph - N/A   Overcast
2:53 AM 39.9 °F 33.9 °F 35.1 °F 83% 29.69 in 10.0 mi SSW 9.2 mph - 0.00 in Rain Light Rain
3:53 AM 39.0 °F 34.0 °F 36.0 °F 89% 29.68 in 10.0 mi WSW 6.9 mph - 0.00 in Rain Light Rain
4:53 AM 37.9 °F 32.7 °F 37.0 °F 97% 29.69 in 9.0 mi WNW 6.9 mph - 0.00 in Rain Light Rain
5:53 AM 37.9 °F 34.4 °F 37.0 °F 97% 29.69 in 10.0 mi NW 4.6 mph - 0.00 in   Overcast
6:53 AM 36.0 °F 33.3 °F 35.1 °F 97% 29.72 in 7.0 mi SW 3.5 mph - N/A   Overcast
7:53 AM 37.0 °F 34.5 °F 36.0 °F 96% 29.73 in 8.0 mi SSW 3.5 mph - N/A   Overcast
8:53 AM 42.1 °F 40.2 °F 39.9 °F 92% 29.71 in 10.0 mi SSE 3.5 mph - N/A   Overcast
9:53 AM 44.1 °F 40.1 °F 42.1 °F 93% 29.72 in 10.0 mi SW 6.9 mph - N/A   Overcast
10:53 AM 46.0 °F 41.9 °F 43.0 °F 89% 29.72 in 10.0 mi SW 8.1 mph - N/A   Overcast
11:53 AM 46.9 °F - 42.1 °F 83% 29.69 in 10.0 mi SW 10.4 mph - N/A   Overcast
12:53 PM 48.9 °F - 41.0 °F 74% 29.67 in 10.0 mi SSW 6.9 mph - N/A   Overcast
1:53 PM 53.1 °F - 39.9 °F 61% 29.64 in 10.0 mi SW 8.1 mph - N/A   Partly Cloudy
2:53 PM 54.0 °F - 37.9 °F 55% 29.63 in 10.0 mi South 8.1 mph - N/A   Clear
3:53 PM 54.0 °F - 37.9 °F 55% 29.64 in 10.0 mi SSE 6.9 mph - N/A   Clear
4:53 PM 44.1 °F 39.5 °F 35.1 °F 71% 29.69 in 10.0 mi SE 8.1 mph - N/A   Clear
5:53 PM 36.0 °F 28.5 °F 32.0 °F 86% 29.72 in 10.0 mi SE 10.4 mph - N/A   Clear
6:53 PM 33.1 °F 24.9 °F 30.9 °F 92% 29.74 in 10.0 mi SSE 10.4 mph - N/A   Clear
7:53 PM 37.9 °F 34.4 °F 35.1 °F 89% 29.74 in 10.0 mi SSW 4.6 mph - N/A   Clear
8:53 PM 37.0 °F 31.6 °F 33.1 °F 86% 29.73 in 10.0 mi NNW 6.9 mph - N/A   Clear
9:53 PM 30.9 °F 26.2 °F 28.0 °F 89% 29.75 in 10.0 mi NNW 4.6 mph - N/A   Clear
10:53 PM 28.0 °F 22.8 °F 26.1 °F 92% 29.76 in 10.0 mi SE 4.6 mph - N/A   Clear
11:53 PM 30.0 °F - 28.9 °F 96% 29.75 in 10.0 mi Calm Calm - N/A   Mostly Cloudy